Weather History for Covington, KY

Change the Weather History Date:

Monday, December 16, 2013

  Actual Average Record
Temperature  
Mean Temperature 32 °F 34 °F  
Max Temperature 36 °F 41 °F 67 °F (1984)
Min Temperature 27 °F 26 °F -7 °F (1989)
Degree Days  
Heating Degree Days 33 31  
Month to date heating degree days 506 465  
Since 1 July heating degree days 1542 1425  
Cooling Degree Days 0 0  
Month to date cooling degree days 0 0  
Year to date cooling degree days 1150 1121  
Moisture  
Dew Point 28 °F    
Average Humidity 88    
Maximum Humidity 100    
Minimum Humidity 75    
Precipitation  
Precipitation 0.05 in 0.10 in 1.50 in (2000)
Month to date precipitation 2.33 1.75  
Year to date precipitation 46.90 40.90  
Snow  
Snow 0.50 in 0.20 in 4.10 in (2010)
Month to date snowfall 10.1 2.0  
Since 1 July snowfall 12.5 2.8  
Snow Depth 1.00 in    
Sea Level Pressure  
Sea Level Pressure 30.08 in    
Wind  
Wind Speed 5 mph (SSW)    
Max Wind Speed 12 mph    
Max Gust Speed 14 mph    
Visibility 4 miles    
Events Snow    
T = Trace of Precipitation, MM = Missing Value Source: NWS Daily Summary

Daily Weather History Graph

Daily Weather History Graph

Search for Another Location

Airport:

Trip Planner

Search our weather history database for the weather conditions in past years. The results will help you decide how hot, cold, wet, or windy it might be!

Date:

Astronomy

Dec. 16, 2013 Rise Set
Actual Time 7:51 AM EST 5:17 PM EST
Civil Twilight 7:21 AM EST 5:47 PM EST
Nautical Twilight 6:47 AM EST 6:21 PM EST
Astronomical Twilight 6:15 AM EST 6:53 PM EST
Moon 5:06 PM EST (12/16) 6:59 AM EST (12/16)
Length of Visible Light 10h 26m
Length of Day
9h 26m
Full, 100% of the Moon is Illuminated
Dec 16
Full
Dec 17
Full
Dec 25
Last Quarter
Jan 1
New
Jan 7
First Quarter

Hourly Weather History & Observations

Time (EST) Temp. Windchill Dew Point Humidity Pressure Visibility Wind Dir Wind Speed Gust Speed Precip Events Conditions
12:52 AM 28.0 °F 22.8 °F 23.0 °F 81% 30.13 in 6.0 mi SSW 4.6 mph - 0.00 in Snow Light Snow
1:52 AM 27.0 °F 19.5 °F 24.1 °F 89% 30.12 in 2.5 mi SW 6.9 mph - 0.00 in Snow Light Snow
2:34 AM 28.4 °F 21.2 °F 24.8 °F 86% 30.10 in 1.5 mi SW 6.9 mph - 0.01 in Snow Light Snow
2:50 AM 28.4 °F 22.2 °F 24.8 °F 86% 30.10 in 1.8 mi SW 5.8 mph - 0.01 in Snow Light Snow
2:52 AM 28.0 °F 22.8 °F 25.0 °F 88% 30.12 in 2.5 mi SW 4.6 mph - 0.01 in Snow Light Snow
3:28 AM 28.4 °F 22.2 °F 24.8 °F 86% 30.10 in 1.5 mi SW 5.8 mph - 0.00 in Snow Light Snow
3:52 AM 28.0 °F 22.8 °F 26.1 °F 92% 30.12 in 1.8 mi SSW 4.6 mph - 0.00 in Snow Light Snow
4:01 AM 28.4 °F 22.2 °F 26.6 °F 93% 30.09 in 1.8 mi South 5.8 mph - 0.01 in Snow Light Snow
4:40 AM 28.4 °F 22.2 °F 26.6 °F 93% 30.09 in 2.0 mi South 5.8 mph - 0.01 in Snow Light Snow
4:52 AM 28.0 °F 22.8 °F 27.0 °F 96% 30.10 in 2.5 mi South 4.6 mph - 0.01 in Snow Light Snow
5:27 AM 28.4 °F 22.2 °F 26.6 °F 93% 30.08 in 1.8 mi South 5.8 mph - 0.01 in Snow Light Snow
5:52 AM 28.0 °F 20.8 °F 27.0 °F 96% 30.10 in 2.0 mi South 6.9 mph - 0.01 in Snow Light Snow
6:32 AM 28.4 °F 22.2 °F 26.6 °F 93% 30.07 in 2.5 mi South 5.8 mph - 0.01 in Snow Light Snow
6:52 AM 28.9 °F 21.9 °F 28.0 °F 96% 30.10 in 2.5 mi South 6.9 mph - 0.01 in Snow Light Snow
7:04 AM 28.4 °F 22.2 °F 28.4 °F 100% 30.08 in 3.0 mi SSW 5.8 mph - 0.00 in Snow Light Snow
7:52 AM 30.0 °F 25.2 °F 28.0 °F 92% 30.11 in 4.0 mi South 4.6 mph - 0.00 in Snow Light Snow
8:31 AM 30.2 °F 23.4 °F 28.4 °F 93% 30.09 in 2.5 mi South 6.9 mph - 0.00 in Snow Light Snow
8:52 AM 30.0 °F 24.1 °F 28.9 °F 96% 30.11 in 2.5 mi South 5.8 mph - 0.00 in Snow Light Snow
9:52 AM 30.9 °F 24.3 °F 28.9 °F 92% 30.12 in 2.5 mi South 6.9 mph - 0.01 in Snow Light Snow
10:43 AM 32.0 °F 25.6 °F 28.4 °F 87% 30.09 in 4.0 mi South 6.9 mph - 0.00 in   Overcast
10:52 AM 32.0 °F 24.8 °F 28.9 °F 88% 30.12 in 5.0 mi South 8.1 mph - 0.00 in   Overcast
11:52 AM 33.1 °F 28.7 °F 30.0 °F 89% 30.10 in 5.0 mi SSW 4.6 mph - N/A   Overcast
12:52 PM 34.0 °F 31.0 °F 30.0 °F 85% 30.07 in 6.0 mi SSW 3.5 mph - N/A   Overcast
1:52 PM 34.0 °F 28.8 °F 30.0 °F 85% 30.05 in 6.0 mi South 5.8 mph - N/A   Overcast
2:52 PM 34.0 °F 28.8 °F 30.9 °F 89% 30.03 in 5.0 mi South 5.8 mph - N/A   Overcast
3:52 PM 35.1 °F - 30.9 °F 85% 30.04 in 5.0 mi Calm Calm - N/A   Overcast
4:18 PM 35.6 °F - 30.2 °F 81% 30.03 in 6.0 mi Calm Calm - N/A   Haze
4:52 PM 35.1 °F - 30.9 °F 85% 30.06 in 6.0 mi Calm Calm - N/A   Overcast
5:52 PM 35.1 °F 32.2 °F 32.0 °F 89% 30.06 in 6.0 mi South 3.5 mph - N/A   Overcast
6:52 PM 35.1 °F 31.0 °F 30.9 °F 85% 30.04 in 6.0 mi SSE 4.6 mph - N/A   Overcast
7:32 PM 33.8 °F 28.6 °F 30.2 °F 87% 30.03 in 6.0 mi SSE 5.8 mph - N/A   Scattered Clouds
7:52 PM 33.1 °F 28.7 °F 30.9 °F 92% 30.04 in 6.0 mi SSE 4.6 mph - N/A   Scattered Clouds
8:52 PM 32.0 °F 25.6 °F 30.0 °F 92% 30.03 in 5.0 mi South 6.9 mph - N/A   Partly Cloudy
9:52 PM 34.0 °F 27.2 °F 30.9 °F 89% 30.01 in 6.0 mi South 8.1 mph - 0.00 in   Scattered Clouds
10:52 PM 35.1 °F 30.1 °F 30.9 °F 85% 30.02 in 7.0 mi SW 5.8 mph - N/A   Overcast
11:52 PM 35.1 °F 30.1 °F 30.9 °F 85% 30.01 in 7.0 mi SW 5.8 mph - N/A   Mostly Cloudy